| time (UTC) | temp F | wind direction | speed MPH | gust MPH | rain 1hr in | rain 24hr in | rain mn in | humidity % | barometer mb |
| 20260504050016 | 63 | 257 | 2.0 | 7.0 | 0.00 | 0.00 | 0.00 | 71 | 1016.2 |
| 20260504045016 | 63 | 295 | 3.0 | 7.0 | 0.00 | 0.00 | 0.00 | 70 | 1016.1 |
| 20260504044016 | 63 | 278 | 3.0 | 6.0 | 0.00 | 0.00 | 0.00 | 70 | 1015.8 |
| 20260504043016 | 63 | 256 | 1.0 | 3.0 | 0.00 | 0.00 | 0.00 | 70 | 1016.0 |
| 20260504042015 | 63 | 256 | 1.0 | 4.0 | 0.00 | 0.00 | 0.00 | 70 | 1015.8 |
| 20260504041015 | 63 | 286 | 1.0 | 3.0 | 0.00 | 0.00 | 0.00 | 70 | 1015.5 |
| 20260504040016 | 63 | 289 | 1.0 | 4.0 | 0.00 | 0.00 | 0.00 | 70 | 1015.3 |
| 20260504035035 | 63 | 276 | 2.0 | 7.0 | 0.00 | 0.00 | 0.00 | 70 | 1015.3 |
| 20260504034015 | 63 | 295 | 2.0 | 5.0 | 0.00 | 0.00 | 0.00 | 69 | 1015.4 |
| 20260504033056 | 63 | 279 | 2.0 | 6.0 | 0.00 | 0.00 | 0.00 | 69 | 1015.5 |
| 20260504032016 | 63 | 277 | 2.0 | 6.0 | 0.00 | 0.00 | 0.00 | 69 | 1015.3 |
| 20260504031056 | 63 | 290 | 2.0 | 4.0 | 0.00 | 0.00 | 0.00 | 69 | 1015.4 |
| 20260504030016 | 64 | 257 | 3.0 | 8.0 | 0.00 | 0.00 | 0.00 | 68 | 1015.2 |
| 20260504025016 | 64 | 269 | 3.0 | 7.0 | 0.00 | 0.00 | 0.00 | 67 | 1015.2 |
| 20260504024015 | 64 | 263 | 3.0 | 8.0 | 0.00 | 0.00 | 0.00 | 67 | 1015.1 |
| 20260504023016 | 64 | 275 | 4.0 | 10.0 | 0.00 | 0.00 | 0.00 | 65 | 1015.2 |
| 20260504022015 | 64 | 238 | 3.0 | 8.0 | 0.00 | 0.00 | 0.00 | 65 | 1015.1 |
| 20260504021015 | 65 | 264 | 3.0 | 9.0 | 0.00 | 0.00 | 0.00 | 64 | 1015.3 |
| 20260504020016 | 65 | 262 | 3.0 | 7.0 | 0.00 | 0.00 | 0.00 | 63 | 1015.0 |
| 20260504015015 | 65 | 232 | 4.0 | 9.0 | 0.00 | 0.00 | 0.00 | 63 | 1015.0 |
| 20260504014015 | 66 | 257 | 4.0 | 10.0 | 0.00 | 0.00 | 0.00 | 64 | 1014.9 |
| 20260504013016 | 66 | 236 | 3.0 | 11.0 | 0.00 | 0.00 | 0.00 | 64 | 1015.0 |
| 20260504012015 | 66 | 256 | 3.0 | 10.0 | 0.00 | 0.00 | 0.00 | 64 | 1014.9 |
| 20260504011036 | 67 | 259 | 3.0 | 9.0 | 0.00 | 0.00 | 0.00 | 63 | 1014.6 |
| 20260504010015 | 67 | 254 | 5.0 | 10.0 | 0.00 | 0.00 | 0.00 | 61 | 1014.6 |
| 20260504005035 | 67 | 244 | 4.0 | 9.0 | 0.00 | 0.00 | 0.00 | 62 | 1014.3 |
| 20260504004015 | 68 | 276 | 7.0 | 13.0 | 0.00 | 0.00 | 0.00 | 61 | 1014.3 |
| 20260504003036 | 68 | 250 | 5.0 | 12.0 | 0.00 | 0.00 | 0.00 | 61 | 1014.1 |
| 20260504002015 | 68 | 278 | 5.0 | 11.0 | 0.00 | 0.00 | 0.00 | 60 | 1014.1 |
| 20260504001015 | 69 | 246 | 5.0 | 11.0 | 0.00 | 0.00 | 0.00 | 59 | 1014.0 |
| 20260504000015 | 69 | 245 | 4.0 | 12.0 | 0.00 | 0.00 | 0.00 | 58 | 1013.9 |
| 20260503235035 | 70 | 263 | 5.0 | 12.0 | 0.00 | 0.00 | 0.00 | 56 | 1014.0 |
| 20260503234015 | 70 | 242 | 3.0 | 9.0 | 0.00 | 0.00 | 0.00 | 55 | 1013.6 |
| 20260503233035 | 71 | 243 | 5.0 | 12.0 | 0.00 | 0.00 | 0.00 | 54 | 1013.6 |
| 20260503232016 | 71 | 256 | 3.0 | 11.0 | 0.00 | 0.00 | 0.00 | 54 | 1013.6 |
| 20260503231015 | 71 | 249 | 5.0 | 11.0 | 0.00 | 0.00 | 0.00 | 53 | 1013.9 |
| 20260503230015 | 71 | 265 | 4.0 | 10.0 | 0.00 | 0.00 | 0.00 | 54 | 1014.0 |
| 20260503225036 | 72 | 225 | 5.0 | 10.0 | 0.00 | 0.00 | 0.00 | 53 | 1014.1 |
| 20260503224015 | 73 | 260 | 3.0 | 11.0 | 0.00 | 0.00 | 0.00 | 53 | 1014.3 |
| 20260503223035 | 73 | 242 | 4.0 | 10.0 | 0.00 | 0.00 | 0.00 | 52 | 1014.1 |
| 20260503222015 | 73 | 268 | 6.0 | 11.0 | 0.00 | 0.00 | 0.00 | 52 | 1014.2 |
| 20260503221015 | 73 | 236 | 5.0 | 12.0 | 0.00 | 0.00 | 0.00 | 53 | 1014.2 |
| 20260503220015 | 72 | 281 | 5.0 | 11.0 | 0.00 | 0.00 | 0.00 | 54 | 1014.4 |
| 20260503215015 | 72 | 293 | 6.0 | 12.0 | 0.00 | 0.00 | 0.00 | 54 | 1014.6 |
| 20260503214015 | 72 | 272 | 5.0 | 11.0 | 0.00 | 0.00 | 0.00 | 56 | 1014.6 |
| 20260503213015 | 71 | 289 | 5.0 | 11.0 | 0.00 | 0.00 | 0.00 | 57 | 1014.5 |
| 20260503212015 | 71 | 290 | 7.0 | 16.0 | 0.00 | 0.00 | 0.00 | 57 | 1014.7 |
| 20260503211015 | 71 | 269 | 5.0 | 11.0 | 0.00 | 0.00 | 0.00 | 57 | 1014.8 |
| 20260503210016 | 71 | 289 | 6.0 | 13.0 | 0.00 | 0.00 | 0.00 | 57 | 1014.8 |
| 20260503205015 | 71 | 290 | 8.0 | 17.0 | 0.00 | 0.00 | 0.00 | 57 | 1014.7 |
| 20260503204015 | 72 | 310 | 8.0 | 17.0 | 0.00 | 0.00 | 0.00 | 56 | 1014.7 |
| 20260503203017 | 73 | 275 | 3.0 | 11.0 | 0.00 | 0.00 | 0.00 | 56 | 1014.8 |
| 20260503202037 | 73 | 298 | 8.0 | 15.0 | 0.00 | 0.00 | 0.00 | 57 | 1014.8 |
| 20260503201035 | 73 | 299 | 6.0 | 13.0 | 0.00 | 0.00 | 0.00 | 58 | 1014.9 |
| 20260503200017 | 73 | 272 | 7.0 | 16.0 | 0.00 | 0.00 | 0.00 | 58 | 1015.0 |
| 20260503195017 | 72 | 276 | 5.0 | 14.0 | 0.00 | 0.00 | 0.00 | 60 | 1015.1 |
| 20260503194017 | 71 | 268 | 5.0 | 11.0 | 0.00 | 0.00 | 0.00 | 60 | 1015.2 |
| 20260503193036 | 71 | 269 | 5.0 | 10.0 | 0.00 | 0.00 | 0.00 | 61 | 1015.2 |
| 20260503192017 | 70 | 269 | 6.0 | 14.0 | 0.00 | 0.00 | 0.00 | 61 | 1015.2 |
| 20260503191017 | 71 | 270 | 6.0 | 14.0 | 0.00 | 0.00 | 0.00 | 60 | 1015.1 |
| 20260503190017 | 71 | 273 | 8.0 | 12.0 | 0.00 | 0.00 | 0.00 | 60 | 1015.1 |
| 20260503185016 | 71 | 258 | 6.0 | 11.0 | 0.00 | 0.00 | 0.00 | 60 | 1015.0 |
| 20260503184017 | 72 | 279 | 7.0 | 13.0 | 0.00 | 0.00 | 0.00 | 60 | 1015.1 |
| 20260503183017 | 72 | 284 | 6.0 | 12.0 | 0.00 | 0.00 | 0.00 | 60 | 1015.0 |
| 20260503182017 | 72 | 264 | 4.0 | 11.0 | 0.00 | 0.00 | 0.00 | 60 | 1015.0 |
| 20260503181016 | 72 | 232 | 3.0 | 7.0 | 0.00 | 0.00 | 0.00 | 60 | 1015.0 |
| 20260503180015 | 71 | 312 | 4.0 | 10.0 | 0.00 | 0.00 | 0.00 | 62 | 1015.0 |
| 20260503175016 | 70 | 261 | 3.0 | 6.0 | 0.00 | 0.00 | 0.00 | 63 | 1015.0 |
| 20260503174016 | 70 | 292 | 2.0 | 9.0 | 0.00 | 0.00 | 0.00 | 64 | 1015.0 |
| 20260503173016 | 69 | 292 | 3.0 | 8.0 | 0.00 | 0.00 | 0.00 | 64 | 1015.1 |
| 20260503172016 | 69 | 274 | 3.0 | 9.0 | 0.00 | 0.00 | 0.00 | 64 | 1015.0 |
| 20260503171057 | 68 | 31 | 1.0 | 3.0 | 0.00 | 0.00 | 0.00 | 65 | 1015.0 |
| 20260503131016 | 62 | 337 | 3.0 | 6.0 | 0.00 | 0.00 | 0.00 | 76 | 1013.9 |
| 20260503081016 | 62 | 315 | 0.0 | 1.0 | 0.00 | 0.00 | 0.00 | 78 | 1014.4 |
| 20260503072016 | 62 | 0.0 | 0.0 | 0.00 | 0.00 | 0.00 | 78 | 1014.8 | |
| 20260503071016 | 62 | 315 | 1.0 | 3.0 | 0.00 | 0.00 | 0.00 | 78 | 1014.8 |
| 20260503055037 | 61 | 285 | 2.0 | 6.0 | 0.00 | 0.00 | 0.00 | 80 | 1014.5 |
| 20260503054016 | 61 | 293 | 3.0 | 6.0 | 0.00 | 0.00 | 0.00 | 80 | 1014.6 |
| 20260503053016 | 61 | 299 | 1.0 | 7.0 | 0.00 | 0.00 | 0.00 | 80 | 1014.4 |